Weather History for Kangerlussuaq, Greenland

Change the Weather History Date:

Sunday, February 24, 2013

  Actual Average Record
Temperature  
Mean Temperature -22 °F -  
Max Temperature -13 °F 10 °F 42 °F (2005)
Min Temperature -31 °F -9 °F -43 °F (2002)
Degree Days  
Heating Degree Days 87    
Moisture  
Dew Point -33 °F    
Average Humidity 62    
Maximum Humidity 75    
Minimum Humidity 35    
Precipitation  
Precipitation 0.00 in 0.01 in - ()
Sea Level Pressure  
Sea Level Pressure 30.07 in    
Wind  
Wind Speed 7 mph ()    
Max Wind Speed 12 mph    
Max Gust Speed -    
Visibility 6.4 miles    
Events      
Averages and records for this station are not official NWS values.
T = Trace of Precipitation, MM = Missing Value Source: Averaged Metar Reports

Daily Weather History Graph

Daily Weather History Graph

Search for Another Location

Airport:

Trip Planner

Search our weather history database for the weather conditions in past years. The results will help you decide how hot, cold, wet, or windy it might be!

Date:

Astronomy

Feb. 24, 2013 Rise Set
Actual Time 7:57 AM WGT 5:15 PM WGT
Civil Twilight 7:02 AM WGT 6:10 PM WGT
Nautical Twilight 6:01 AM WGT 7:12 PM WGT
Astronomical Twilight 4:58 AM WGT 8:15 PM WGT
Moon 4:15 PM WGT (2/24) 7:04 AM WGT (2/24)
Length of Visible Light 11h 08m
Length of Day
9h 18m
Waxing Gibbous, 98% of the Moon is Illuminated
Feb 24
Waxing Gibbous
Feb 25
Full
Mar 4
Last Quarter
Mar 11
New
Mar 19
First Quarter

Hourly Weather History & Observations

Time (WGT) Temp. Windchill Dew Point Humidity Pressure Visibility Wind Dir Wind Speed Gust Speed Precip Events Conditions
12:00 AM -22 °F - -32 °F 40% 30.19 in 31 mi ENE 8.1 mph - -  
12:20 AM -23.8 °F -41.6 °F -31.0 °F 69% 30.15 in 6.2 mi NNE 6.9 mph - N/A   Unknown
12:50 AM -23.8 °F -43.2 °F -32.8 °F 63% 30.15 in 6.2 mi NE 8.1 mph - N/A   Unknown
1:20 AM -25.6 °F -43.8 °F -32.8 °F 69% 30.15 in 6.2 mi NE 6.9 mph - N/A   Unknown
1:50 AM -25.6 °F -45.4 °F -32.8 °F 69% 30.15 in 6.2 mi NE 8.1 mph - N/A   Unknown
2:20 AM -25.6 °F -46.8 °F -32.8 °F 69% 30.15 in 6.2 mi ENE 9.2 mph - N/A   Unknown
2:50 AM -27.4 °F -47.6 °F -36.4 °F 62% 30.15 in 6.2 mi NE 8.1 mph - N/A   Unknown
3:00 AM -27 °F - -36 °F 42% 30.19 in 31 mi NE 8.1 mph - -  
3:20 AM -25.6 °F -48.0 °F -34.6 °F 63% 30.15 in 6.2 mi NE 10.4 mph - N/A   Unknown
3:50 AM -29.2 °F -51.2 °F -36.4 °F 68% 30.15 in 6.2 mi ENE 9.2 mph - N/A   Unknown
4:20 AM -29.2 °F -49.7 °F -36.4 °F 68% 30.15 in 6.2 mi ENE 8.1 mph - N/A   Unknown
4:50 AM -27.4 °F -47.6 °F -34.6 °F 69% 30.15 in 6.2 mi NE 8.1 mph - N/A   Unknown
5:20 AM -29.2 °F -48.1 °F -36.4 °F 68% 30.12 in 6.2 mi ENE 6.9 mph - N/A   Unknown
5:50 AM -27.4 °F -47.6 °F -32.8 °F 75% 30.15 in 6.2 mi ENE 8.1 mph - N/A   Partly Cloudy
6:00 AM -27 °F - -36 °F 43% 30.19 in 31 mi NE 8.1 mph - -   Scattered Clouds
6:20 AM -27.4 °F -47.6 °F -34.6 °F 69% 30.15 in 6.2 mi ENE 8.1 mph - N/A   Partly Cloudy
6:50 AM -27.4 °F -47.6 °F -34.6 °F 69% 30.15 in 6.2 mi NE 8.1 mph - N/A   Partly Cloudy
7:20 AM -29.2 °F -51.2 °F -38.2 °F 62% 30.15 in 6.2 mi ENE 9.2 mph - N/A   Unknown
7:50 AM -31.0 °F -51.9 °F -38.2 °F 68% 30.15 in 6.2 mi ENE 8.1 mph - N/A   Partly Cloudy
8:20 AM -29.2 °F -51.2 °F -36.4 °F 68% 30.12 in 6.2 mi NE 9.2 mph - N/A   Unknown
8:50 AM -29.2 °F -51.2 °F -36.4 °F 68% 30.12 in 6.2 mi NE 9.2 mph - N/A   Unknown
9:00 AM -29 °F - -38 °F 44% 30.18 in 31 mi ENE 9.2 mph - -  
9:20 AM -27.4 °F -47.6 °F -34.6 °F 69% 30.12 in 6.2 mi NE 8.1 mph - N/A   Unknown
9:50 AM -25.6 °F -45.4 °F -32.8 °F 69% 30.12 in 6.2 mi NE 8.1 mph - N/A   Unknown
10:20 AM -23.8 °F -43.2 °F -32.8 °F 63% 30.12 in 6.2 mi NE 8.1 mph - N/A   Unknown
10:50 AM -22.0 °F -41.0 °F -31.0 °F 63% 30.09 in 6.2 mi ENE 8.1 mph - N/A   Unknown
11:20 AM -22.0 °F -41.0 °F -32.8 °F 57% 30.09 in 6.2 mi ENE 8.1 mph - N/A   Unknown
11:50 AM -20.2 °F -37.3 °F -29.2 °F 63% 30.06 in 6.2 mi ENE 6.9 mph - N/A   Unknown
12:00 PM -20 °F - -32 °F 35% 30.12 in 16 mi East 6.9 mph - -  
12:20 PM -18.4 °F -33.4 °F -29.2 °F 58% 30.06 in 6.2 mi East 5.8 mph - N/A   Unknown
12:50 PM -18.4 °F -35.1 °F -29.2 °F 58% 30.06 in 6.2 mi ENE 6.9 mph - N/A   Unknown
1:20 PM -16.6 °F -26.8 °F -27.4 °F 58% 30.04 in 6.2 mi East 3.5 mph - N/A   Unknown
1:50 PM -16.6 °F - -27.4 °F 58% 30.04 in 6.2 mi ESE 1.2 mph - N/A   Unknown
2:20 PM -18.4 °F - -31.0 °F 53% 30.04 in 6.2 mi SSE 2.3 mph - N/A   Unknown
2:50 PM -18.4 °F -33.4 °F -29.2 °F 58% 30.01 in 6.2 mi ENE 5.8 mph - N/A   Unknown
3:00 PM -19 °F - -31 °F 35% 30.06 in 28 mi East 5.8 mph - -  
3:20 PM -18.4 °F -33.4 °F -29.2 °F 58% 30.01 in 6.2 mi ENE 5.8 mph - N/A   Unknown
3:50 PM -18.4 °F -35.1 °F -27.4 °F 63% 30.01 in 6.2 mi ENE 6.9 mph - N/A   Unknown
4:20 PM -18.4 °F -36.6 °F -29.2 °F 58% 30.01 in 6.2 mi ENE 8.1 mph - N/A   Unknown
4:50 PM -20.2 °F -37.3 °F -29.2 °F 63% 30.01 in 6.2 mi ENE 6.9 mph - N/A   Unknown
5:20 PM -22.0 °F -41.0 °F -31.0 °F 63% 29.98 in 6.2 mi ENE 8.1 mph - N/A   Unknown
5:50 PM -22.0 °F -41.0 °F -31.0 °F 63% 29.98 in 6.2 mi NE 8.1 mph - N/A   Unknown
6:00 PM -23 °F - -33 °F 42% 30.03 in 31 mi NE 6.9 mph - -  
6:20 PM -23.8 °F -39.8 °F -31.0 °F 69% 29.98 in 6.2 mi ENE 5.8 mph - N/A   Unknown
6:50 PM -23.8 °F -41.6 °F -31.0 °F 69% 29.98 in 6.2 mi NE 6.9 mph - N/A   Unknown
7:20 PM -23.8 °F -41.6 °F -32.8 °F 63% 29.98 in 6.2 mi NE 6.9 mph - N/A   Unknown
7:50 PM -23.8 °F -41.6 °F -31.0 °F 69% 29.98 in 6.2 mi ENE 6.9 mph - N/A   Unknown
8:20 PM -25.6 °F -45.4 °F -32.8 °F 69% 29.95 in 6.2 mi ENE 8.1 mph - N/A   Unknown
8:50 PM -23.8 °F -44.5 °F -31.0 °F 69% 29.95 in 6.2 mi NE 9.2 mph - N/A   Unknown
9:00 PM -25 °F - -34 °F 44% 30.00 in 31 mi NE 8.1 mph - -  
9:20 PM -25.6 °F -49.2 °F -34.6 °F 63% 29.95 in 6.2 mi ENE 11.5 mph - N/A   Unknown
9:50 PM -25.6 °F -45.4 °F -32.8 °F 69% 29.95 in 6.2 mi NE 8.1 mph - N/A   Unknown
10:20 PM -25.6 °F -43.8 °F -32.8 °F 69% 29.92 in 6.2 mi ENE 6.9 mph - N/A   Unknown
10:50 PM -25.6 °F -45.4 °F -32.8 °F 69% 29.92 in 6.2 mi NE 8.1 mph - N/A   Unknown
11:20 PM -25.6 °F -46.8 °F -32.8 °F 69% 29.92 in 6.2 mi ENE 9.2 mph - N/A   Unknown
11:50 PM -27.4 °F -49.0 °F -34.6 °F 69% 29.92 in 6.2 mi NE 9.2 mph - N/A   Unknown